"Pseudo-MPEC" for P20ORNy

Created 2019 Jun 17 11:08:03 UT using Find_Orb

Click here for an explanation of pseudo-MPECs

 
 Astrometry: 
     P20ORNy  C2019 06 08^X(/*JAstrometrycxG(?v1UKNI882;3-v+f[24redacted;sDp)F52
     P20ORNy  C2019 06 08OA+8?-nDg[p;^b-p#tWy%x4k2b6(EeI*clickWC7%ErJfS@[8\hbF52
     P20ORNy  C2019 06 08_bt9Bherer'g^Cfor#fhBjsSgdY2\)explanationRj#3\_UxD=rF52

Station data:
(F52) Pan-STARRS 2, Haleakala  (N20.707384 W156.255910)  US/Hawaii. 1.8-m
   Ritchey-Chrétien + CCD.

Orbital elements:  P20ORNy
   Perihelion 2019 Mar 27.297360 +/- 26.7 TT =  7:08:11 (JD 2458569.797360)
Epoch 2019 Jun  8.0 TT = JDT 2458642.5   Earth MOID: 0.0030   AutoNEOCP
M  64.81011202 +/- 24               (J2000 ecliptic)
n   0.89144097 +/- 0.46             Peri.  288.83026 +/- 70
a   1.06923784 +/- 0.368            Node   247.26596 +/- 70
e   0.1397587 +/- 0.24              Incl.    2.10496 +/- 9
P   1.11/403.83d           H 27.9   G  0.15   U 12.2  SR
q 0.91980248 +/- 0.234    Q 1.21867320 +/- 38.1
From 3 observations 2019 June 8 (50.0 min); mean residual 0".06
Residuals in arcseconds: 
190608 F52  .01+  .04-    190608 F52  .02-  .12+    190608 F52  .01+  .08-    

Ephemerides (geocentric):
Date (UTC) HH   RA              Dec         delta   r     elong  mag " sig PA
---- -- -- --  -------------   -----------  ------ ------ -----  --- ---- ---
2019 06 17 11  16 46 01.668   -01 32 47.63  .03343 1.0462 154.4 21.7  42d  11
2019 06 17 12  16 46 10.076   -01 34 09.48  .03353 1.0463 154.4 21.7  42d  11
2019 06 17 13  16 46 18.437   -01 35 30.93  .03363 1.0464 154.4 21.7  42d  11
2019 06 17 14  16 46 26.753   -01 36 51.98  .03373 1.0464 154.4 21.7  42d  11
2019 06 17 15  16 46 35.024   -01 38 12.65  .03383 1.0465 154.4 21.7  42d  11
2019 06 17 16  16 46 43.250   -01 39 32.93  .03393 1.0466 154.5 21.7  42d  11
2019 06 17 17  16 46 51.431   -01 40 52.83  .03402 1.0467 154.5 21.8  42d  11
2019 06 17 18  16 46 59.569   -01 42 12.36  .03412 1.0468 154.5 21.8  42d  11
2019 06 17 19  16 47 07.662   -01 43 31.51  .03422 1.0469 154.5 21.8  42d  11
2019 06 17 20  16 47 15.713   -01 44 50.28  .03432 1.0470 154.5 21.8  42d  11
2019 06 17 21  16 47 23.721   -01 46 08.69  .03442 1.0471 154.5 21.8  42d  11
2019 06 17 22  16 47 31.686   -01 47 26.74  .03452 1.0472 154.5 21.8  42d  11
2019 06 17 23  16 47 39.608   -01 48 44.42  .03462 1.0473 154.5 21.8  42d  11
2019 06 18 00  16 47 47.489   -01 50 01.74  .03472 1.0474 154.6 21.8  42d  11
2019 06 18 01  16 47 55.329   -01 51 18.71  .03482 1.0475 154.6 21.8  42d  11
2019 06 18 02  16 48 03.127   -01 52 35.32  .03492 1.0476 154.6 21.8  42d  11
2019 06 18 03  16 48 10.884   -01 53 51.59  .03502 1.0477 154.6 21.8  42d  11
2019 06 18 04  16 48 18.601   -01 55 07.51  .03512 1.0478 154.6 21.8  42d  11
2019 06 18 05  16 48 26.278   -01 56 23.08  .03522 1.0479 154.6 21.8  42d  11
2019 06 18 06  16 48 33.915   -01 57 38.32  .03532 1.0480 154.6 21.8  42d  11
2019 06 18 07  16 48 41.512   -01 58 53.21  .03542 1.0481 154.6 21.8  42d  11
2019 06 18 08  16 48 49.071   -02 00 07.78  .03552 1.0482 154.6 21.8  42d  11
2019 06 18 09  16 48 56.590   -02 01 22.00  .03562 1.0483 154.7 21.9  42d  11
2019 06 18 10  16 49 04.071   -02 02 35.90  .03572 1.0484 154.7 21.9  42d  11
2019 06 18 11  16 49 11.513   -02 03 49.48  .03582 1.0485 154.7 21.9  43d  11
2019 06 18 12  16 49 18.918   -02 05 02.73  .03592 1.0486 154.7 21.9  43d  11
2019 06 18 13  16 49 26.285   -02 06 15.66  .03602 1.0487 154.7 21.9  43d  11
2019 06 18 14  16 49 33.615   -02 07 28.27  .03612 1.0488 154.7 21.9  43d  11
2019 06 18 15  16 49 40.908   -02 08 40.56  .03622 1.0489 154.7 21.9  43d  11
2019 06 18 16  16 49 48.164   -02 09 52.54  .03632 1.0490 154.7 21.9  43d  11
2019 06 18 17  16 49 55.384   -02 11 04.21  .03642 1.0491 154.7 21.9  43d  11
2019 06 18 18  16 50 02.568   -02 12 15.58  .03652 1.0492 154.7 21.9  43d  11
2019 06 18 19  16 50 09.716   -02 13 26.64  .03662 1.0493 154.8 21.9  43d  11
2019 06 18 20  16 50 16.828   -02 14 37.39  .03672 1.0494 154.8 21.9  43d  11
2019 06 18 21  16 50 23.905   -02 15 47.85  .03682 1.0495 154.8 21.9  43d  11
2019 06 18 22  16 50 30.947   -02 16 58.00  .03692 1.0496 154.8 21.9  43d  11
2019 06 18 23  16 50 37.955   -02 18 07.87  .03702 1.0497 154.8 21.9  43d  11
2019 06 19 00  16 50 44.928   -02 19 17.44  .03712 1.0497 154.8 21.9  43d  11
2019 06 19 01  16 50 51.866   -02 20 26.71  .03723 1.0498 154.8 21.9  43d  11
2019 06 19 02  16 50 58.771   -02 21 35.71  .03733 1.0499 154.8 22.0  43d  11
2019 06 19 03  16 51 05.643   -02 22 44.41  .03743 1.0500 154.8 22.0  43d  11
2019 06 19 04  16 51 12.481   -02 23 52.83  .03753 1.0501 154.8 22.0  43d  11
2019 06 19 05  16 51 19.286   -02 25 00.97  .03763 1.0502 154.8 22.0  43d  11
2019 06 19 06  16 51 26.058   -02 26 08.84  .03773 1.0503 154.8 22.0  43d  11
2019 06 19 07  16 51 32.798   -02 27 16.42  .03783 1.0504 154.8 22.0  43d  11
2019 06 19 08  16 51 39.505   -02 28 23.73  .03793 1.0505 154.9 22.0  43d  11
2019 06 19 09  16 51 46.180   -02 29 30.77  .03803 1.0506 154.9 22.0  43d  11
2019 06 19 10  16 51 52.824   -02 30 37.54  .03813 1.0507 154.9 22.0  43d  11